User: anonymous
Location: Space Photons Observatory
(33.2428°N, 111.5467°W)
Time: 00:33:29
(UTC-07:00)
Language:

RESURS DK-1 - Orbit

View from above orbital plane
View from above orbital plane
View from above satellite
View from above satellite

Ground track
Ground track

The orbit data is extracted from the following two-line orbital elements,

1 29228U 06021A   14260.22288819  .00001084  00000-0  92695-4 0  2288
2 29228 069.9375 130.5093 0001784 074.0909 286.0446 15.00808643457386
Epoch (UTC): 17 September 2014 05:20:57
Eccentricity: 0.0001784
inclination: 69.9375°
perigee height: 563 km
apogee height: 565 km
right ascension of ascending node: 130.5093°
argument of perigee: 74.0909°
revolutions per day: 15.00808643
mean anomaly at epoch: 286.0446°
orbit number at epoch: 45738

The dashed part of the orbit path shows where the satellite is in the earth's shadow,  

DLR